Location: Middle Street
(51.7167°N, 0.0333°E)
Time: 02:24:55
(UTC+00:00)

NOSS 3-1 (A) - Pass Details

Date: 20 January 2021
Orbit: 735 x 1477 km, 63.4° (Epoch: 26 February)

Event Time Altitude Azimuth Distance (km) Brightness Sun altitude
Rises 18:02:37 0° 308° (NW) 3,717 7.1 -14.3°
Reaches altitude 10° 18:05:10 10° 315° (NW) 2,868 6.4 -14.7°
Maximum altitude 18:11:48 46° 28° (NNE) 1,550 4.3 -15.6°
Enters shadow 18:16:50 22° 91° (E) 2,514 5.0 -16.4°
